RH
19 18 17 16 17 18 18 19 19 18 19 18 19 19 18 19 19 20 20 19 21 23 25 30 32 39 55 69 73 70 69 73 74 74 72 69 65 60 54 50 46 44 45 46 49 51 51 49 44 40 35 30 26 23 22 23 24 25 26 27 29 30 32 34 36 38 39 41 42 42 43 41 40 39 36 34 31 28 27 25 24 23 16 34 71
20 19 18 16 17 19 19 20 19 19 20 19 20 22 24 28 29 28 25 23 22 22 24 29 34 48 69 77 77 75 72 73 72 70 67 62 57 53 50 47 45 42 42 46 51 53 51 48 42 36 31 26 24 23 24 25 27 29 31 34 36 37 39 39 40 40 40 40 40 39 39 36 34 32 28 26 24 20 21 19 19 21 15 32 71
22 20 19 18 18 19 20 20 20 20 20 21 25 31 36 40 40 39 37 33 29 26 26 28 34 54 73 74 69 69 71 72 70 66 63 59 54 51 49 47 44 43 44 49 54 54 49 42 35 29 25 24 24 25 27 29 32 36 38 41 42 41 42 41 40 39 38 36 35 33 31 28 26 24 21 20 18 16 18 17 17 19 15 31 66
23 21 19 19 19 20 20 20 21 21 24 30 37 43 46 46 44 43 42 40 36 32 29 29 34 51 71 75 70 70 72 71 66 62 58 55 52 50 47 46 45 47 51 56 57 52 43 33 27 25 23 24 26 28 31 34 38 41 42 42 42 41 39 37 35 32 30 28 26 24 23 21 20 20 18 18 17 16 17 17 18 16 15 35 63
24 23 20 20 20 20 20 20 21 23 31 44 50 52 51 46 40 37 36 37 37 35 33 31 33 47 66 76 76 74 71 67 62 58 54 52 52 51 48 47 48 53 57 58 53 44 34 28 25 24 24 25 28 32 36 40 41 42 42 42 39 35 31 28 25 23 21 20 19 19 20 20 20 20 18 17 17 17 17 17 17 15 20 44 63
24 24 22 22 21 20 20 20 20 23 39 56 58 56 54 44 35 33 33 33 33 33 35 34 33 42 58 70 75 74 69 64 60 58 55 55 54 52 49 47 50 56 57 50 41 34 28 26 25 26 27 30 34 38 40 42 41 40 38 35 31 25 21 19 18 17 17 18 19 19 20 20 20 20 18 17 18 18 18 16 15 17 30 51 62
28 28 29 30 30 27 24 21 20 23 41 59 58 53 51 44 36 34 35 37 35 31 32 35 36 39 48 59 68 72 70 65 62 60 59 58 56 52 48 49 55 58 50 38 31 28 26 27 29 31 35 38 40 41 40 38 36 32 28 24 21 19 18 18 18 18 19 19 20 21 22 21 21 20 18 17 17 18 17 16 18 26 41 55 61
33 35 37 38 39 37 34 27 20 24 41 55 53 48 45 42 39 38 38 39 36 28 26 32 37 40 43 50 59 67 68 66 63 63 61 58 54 48 47 54 61 55 40 28 26 27 29 32 36 39 42 43 41 37 33 28 25 21 19 18 18 19 20 21 22 21 21 21 21 22 22 22 21 20 19 17 16 16 17 20 28 39 48 53 56
31 35 35 37 39 39 37 30 22 25 41 52 49 45 43 40 38 37 36 33 27 19 18 25 35 40 41 45 53 60 63 63 63 62 59 54 49 47 52 60 58 44 30 26 29 32 36 40 43 44 43 40 34 27 22 18 17 16 17 19 20 22 24 24 24 23 23 22 23 23 23 22 22 21 18 17 17 19 25 31 38 44 48 47 47
23 27 28 28 33 37 35 28 22 27 42 50 48 45 44 40 36 34 30 23 16 13 13 20 31 37 39 42 47 52 55 56 57 56 52 48 48 52 57 55 44 31 28 32 36 39 43 44 43 39 34 28 22 18 16 16 17 18 19 21 23 24 26 26 25 24 23 24 25 24 23 22 21 20 20 20 22 27 35 40 42 45 45 44 43
16 19 21 20 27 36 33 24 23 31 43 48 47 46 43 39 35 30 23 16 12 11 13 19 27 32 35 38 41 44 47 48 48 47 45 46 50 53 49 39 31 30 34 39 42 44 43 39 33 27 21 18 16 16 18 19 19 19 21 23 24 26 27 27 25 24 24 25 26 25 24 22 21 23 25 25 28 36 43 45 47 49 49 49 48
14 14 16 17 27 36 33 27 29 36 42 45 46 44 41 36 31 24 18 13 12 12 15 19 23 26 31 36 39 41 42 42 41 41 43 47 47 42 35 31 33 38 43 44 43 39 33 26 21 17 16 17 18 19 20 20 20 21 23 24 25 26 27 26 25 24 25 25 26 26 23 22 25 31 33 33 35 41 49 53 54 55 54 53 52
14 15 16 20 32 41 39 36 38 40 42 44 44 41 36 30 24 18 14 12 12 13 16 18 22 27 33 38 40 39 38 39 40 42 43 42 37 33 33 37 42 44 43 39 33 26 20 18 17 17 18 20 21 22 23 22 22 22 23 24 25 26 27 26 25 25 26 25 26 25 22 24 34 40 40 43 45 46 50 54 55 55 54 54 52
14 16 19 25 37 47 47 45 44 43 43 43 41 36 29 22 16 13 13 13 14 16 21 25 31 35 38 39 37 37 38 39 40 40 37 34 33 36 41 44 43 39 32 25 20 16 17 18 19 20 21 22 22 23 22 21 20 20 22 23 24 25 25 25 25 27 28 25 24 25 21 24 40 50 49 49 51 50 49 49 50 51 52 53 55
16 17 19 25 32 41 46 46 44 42 40 38 33 26 20 14 13 13 13 14 18 25 31 35 37 36 35 35 35 37 38 38 36 34 33 35 39 43 43 38 31 25 20 17 16 17 19 20 21 22 21 20 20 19 17 16 16 16 17 18 20 23 23 23 25 28 28 26 25 25 22 22 36 51 53 50 49 47 46 47 51 56 60 61 60
16 16 17 21 24 28 32 32 32 31 28 24 21 17 14 12 12 13 15 19 25 30 31 31 31 31 33 35 37 36 35 34 35 37 40 42 42 38 31 25 20 17 17 17 19 20 20 19 19 18 17 16 15 13 13 14 13 13 14 15 16 17 18 20 22 24 27 27 27 32 39 43 51 61 64 62 59 55 52 55 58 60 67 74 71
15 15 16 17 17 19 20 20 20 19 17 16 15 13 12 12 14 16 18 22 25 25 26 29 31 35 36 36 36 35 36 38 41 43 42 38 32 25 19 17 16 17 17 17 17 17 16 16 15 14 14 13 12 13 14 13 13 13 13 12 13 13 15 17 18 20 24 25 29 48 68 74 77 81 80 74 70 69 71 71 69 68 74 81 79
15 14 14 15 15 15 14 13 13 13 13 13 12 13 14 15 17 18 19 22 25 28 33 36 36 36 35 36 38 40 42 44 42 38 33 26 21 17 15 16 16 15 14 13 14 14 14 13 12 12 13 12 12 14 14 13 15 14 11 12 13 12 12 12 12 15 21 21 27 52 74 74 71 75 77 77 83 89 88 78 71 73 76 74 71
20 16 14 13 13 14 13 13 13 13 13 13 13 15 16 16 18 20 24 29 34 36 37 36 36 37 39 41 44 44 41 37 32 26 22 18 17 16 15 15 13 12 12 12 12 13 13 12 13 13 12 13 14 15 16 17 16 13 12 12 10 9 11 12 12 12 17 19 23 43 64 63 56 60 71 82 95 100 93 82 79 79 77 75 76
28 24 21 18 16 15 14 13 13 13 13 14 15 16 18 21 25 30 34 36 37 37 38 39 41 43 44 43 41 36 31 26 21 19 17 16 16 15 13 13 12 12 13 12 12 12 12 12 12 12 12 13 14 15 17 17 14 13 12 10 8 11 10 7 7 8 13 18 16 26 50 57 51 60 73 76 79 85 89 91 91 88 85 88 96
40 33 30 27 25 23 21 19 19 19 20 21 23 26 29 31 34 36 37 38 39 41 43 44 44 43 40 36 30 25 22 19 17 17 16 14 13 12 13 13 13 12 12 11 12 11 11 11 11 10 11 11 11 14 14 14 15 12 10 10 10 8 5 14 34 46 52 57 40 22 30 41 46 63 77 71 68 76 85 92 93 93 95 97 102
45 42 38 35 33 32 31 30 29 30 31 33 34 35 36 37 39 40 41 43 44 45 43 41 39 35 30 25 21 19 18 17 15 14 13 12 12 12 13 13 12 12 12 11 12 11 10 11 9 9 10 8 9 11 9 12 15 10 10 15 8 7 29 62 86 89 91 97 79 38 16 24 46 75 90 86 83 86 89 93 95 96 99 100 100
55 48 44 42 41 39 38 38 37 38 39 40 40 41 42 43 43 43 44 43 40 38 35 32 29 25 21 19 18 16 16 14 13 13 12 13 13 12 13 12 11 12 12 11 12 12 11 11 10 10 11 9 9 9 7 10 11 8 14 14 4 25 74 98 93 89 87 83 70 39 13 21 58 92 100 95 94 94 93 94 95 95 97 99 100
70 61 52 48 47 46 45 45 44 44 45 45 44 43 42 40 38 37 35 33 30 28 25 23 21 18 17 16 15 14 13 13 13 14 13 13 14 13 14 13 12 13 13 13 14 13 12 13 12 12 12 10 9 9 7 8 8 7 12 10 9 49 95 88 64 63 59 42 33 23 14 30 69 97 102 96 91 88 87 92 99 102 101 99 99
52 53 50 47 45 45 45 45 45 44 43 42 39 36 33 30 29 28 26 25 23 21 19 17 16 15 14 14 13 13 14 14 14 14 14 15 16 15 15 15 15 15 15 15 15 14 13 14 14 14 14 12 10 10 8 8 7 7 9 7 10 36 55 43 29 30 25 17 15 14 23 51 80 95 101 102 98 94 94 100 104 105 104 102 100
28 31 34 36 37 37 38 38 37 36 35 32 29 27 26 24 24 23 22 21 19 17 16 15 14 13 13 14 14 14 14 15 15 16 17 17 18 18 18 18 18 17 16 16 16 16 15 15 14 14 13 12 11 11 9 9 8 6 8 7 7 12 15 16 18 17 14 13 10 16 47 82 95 96 100 101 100 101 100 100 100 99 102 104 101
22 23 24 25 27 28 28 28 28 26 25 24 24 23 23 22 22 21 19 17 16 15 15 14 14 15 15 15 15 15 16 16 16 17 18 19 20 20 20 19 19 18 18 18 17 17 17 16 15 14 13 12 12 11 10 10 8 7 7 7 7 8 9 13 17 14 12 11 9 28 70 96 97 98 103 101 99 100 100 101 101 99 99 100 100
27 25 23 22 22 22 23 23 24 24 24 24 24 23 21 20 19 17 16 15 15 15 15 15 15 16 16 16 17 17 17 18 18 18 19 20 20 20 20 20 20 19 19 19 18 18 18 17 15 15 14 13 12 11 10 10 9 8 8 7 7 8 8 11 15 15 15 12 11 37 77 96 93 93 99 101 100 97 96 98 100 100 99 98 100
34 33 30 27 25 24 25 26 28 29 28 26 22 19 18 16 15 15 15 15 16 16 16 17 17 17 17 18 18 18 18 19 19 19 19 20 20 21 21 21 20 20 20 20 19 18 18 17 16 16 15 14 12 11 10 10 9 9 8 7 8 8 8 10 11 13 15 11 11 42 84 99 93 92 97 101 101 96 94 97 98 99 100 98 98
40 39 37 35 32 30 28 29 30 29 26 23 19 17 16 15 15 16 16 16 17 17 17 17 18 18 18 18 18 18 19 19 19 20 20 20 20 21 21 21 21 21 20 19 19 19 18 17 17 16 15 14 12 10 10 9 9 10 9 7 8 8 9 10 9 11 16 11 15 53 94 97 89 95 101 97 94 95 98 100 99 99 100 98 99
40 39 38 37 36 34 30 27 25 23 22 20 19 18 18 18 18 18 18 18 18 18 18 19 19 19 19 19 19 19 19 19 20 20 20 20 20 20 20 21 21 21 21 20 20 20 18 18 18 16 15 14 12 11 10 9 9 10 9 8 9 8 9 11 8 9 14 10 14 51 91 97 88 92 99 97 96 99 101 101 99 99 99 99 100
36 36 36 35 34 32 28 24 21 20 20 20 20 20 20 20 20 20 20 20 20 20 20 20 20 20 20 20 20 20 20 20 21 20 20 19 19 19 20 20 20 20 21 21 20 20 20 19 18 17 17 16 14 12 10 9 10 10 9 9 9 8 8 11 10 8 13 13 11 28 66 93 96 89 91 100 103 98 95 97 99 99 99 100 100
31 30 30 30 28 27 24 22 20 20 20 20 20 20 20 20 20 21 21 22 22 22 22 21 21 21 20 20 21 21 21 21 21 20 20 19 19 20 20 20 20 20 20 20 20 20 20 19 19 19 18 18 17 14 12 11 10 10 10 10 9 9 9 10 10 10 13 16 12 11 32 71 95 95 92 100 105 97 92 96 101 100 99 100 101
29 27 26 25 25 24 23 22 21 21 20 19 19 19 19 20 21 22 24 24 24 24 24 23 22 22 21 21 22 21 21 21 20 19 19 19 20 21 21 20 21 21 21 21 20 20 19 19 19 19 19 19 18 15 13 13 11 10 11 10 9 10 11 10 10 13 14 16 17 11 12 36 69 90 95 99 100 96 95 101 104 100 97 100 102
29 27 25 24 24 23 22 23 22 21 21 20 19 20 20 21 23 25 26 27 27 26 25 24 23 23 23 23 23 22 22 21 20 20 20 20 21 21 21 21 22 22 22 22 21 20 20 19 19 19 19 19 18 16 13 13 12 11 11 11 10 11 13 12 11 14 16 16 16 14 11 16 33 60 86 101 102 95 93 100 104 99 96 100 101
30 29 26 25 24 22 22 22 22 22 22 22 21 23 24 25 27 28 29 29 28 27 27 26 25 25 25 25 25 24 23 23 22 22 22 22 22 22 22 22 23 23 22 23 22 21 20 20 20 21 21 19 17 16 13 12 12 11 10 11 12 14 16 17 16 16 17 17 14 14 17 14 15 39 77 101 104 98 93 97 102 100 97 99 99
33 31 29 28 27 26 25 24 23 23 24 24 25 27 28 28 30 30 29 29 29 29 29 29 28 28 28 28 28 27 26 25 25 24 24 24 24 24 23 23 23 23 23 23 22 21 22 22 22 22 21 20 17 15 14 12 11 11 11 11 13 17 21 24 24 19 16 16 13 14 19 16 19 52 94 108 101 96 93 92 98 103 101 99 99
32 31 30 30 30 29 28 27 26 26 26 26 27 28 29 30 30 30 30 30 30 31 32 32 31 31 31 29 29 29 28 27 26 26 26 25 25 25 25 24 24 24 24 24 23 23 23 24 24 22 21 19 17 14 14 13 11 11 12 11 14 20 27 29 26 20 16 15 13 15 24 23 19 46 91 110 100 95 96 96 99 103 101 99 99
29 29 29 29 29 29 29 29 28 28 28 28 28 29 29 30 30 31 31 32 33 33 34 34 34 34 33 32 31 30 28 28 27 26 26 26 25 25 25 25 25 26 26 26 26 26 26 25 24 23 20 19 17 15 14 15 13 12 13 12 14 20 28 31 27 20 15 15 11 13 34 55 54 57 84 105 99 92 99 103 102 100 97 96 99
30 30 30 30 29 29 29 29 29 29 29 30 30 31 32 32 33 34 34 35 36 37 37 37 37 36 35 33 32 30 29 28 27 27 26 26 26 26 26 26 27 28 29 29 28 28 27 25 24 23 21 19 18 16 13 14 13 11 12 13 14 18 24 28 28 21 14 15 14 10 27 67 92 92 96 103 98 92 99 103 98 94 93 95 101
33 34 35 36 36 36 35 35 35 35 35 35 36 36 37 37 37 38 38 39 40 40 40 39 38 36 34 33 31 30 29 28 27 27 27 26 27 27 27 28 30 30 31 31 29 27 27 25 23 23 21 18 18 16 14 13 13 11 12 12 11 14 19 23 26 23 14 13 18 15 22 58 95 105 103 103 101 99 101 98 93 93 95 96 101
38 38 39 40 41 41 41 41 41 41 41 41 42 42 42 42 42 43 43 42 42 41 39 38 37 35 33 32 31 30 30 29 28 28 28 28 29 30 29 31 33 32 31 31 29 27 27 25 23 22 21 18 17 16 13 12 12 11 12 12 10 11 16 20 26 27 19 13 16 18 25 56 92 106 105 107 107 102 99 97 95 96 98 99 103
45 43 43 42 42 42 42 43 43 43 44 45 45 45 45 45 45 44 44 42 40 39 38 37 37 35 34 32 31 30 30 30 29 29 30 30 31 32 33 34 34 32 30 29 29 27 26 24 23 21 19 18 17 15 13 13 14 13 13 13 11 11 14 20 28 31 24 16 17 18 26 57 91 103 104 110 109 100 95 96 96 98 102 104 103
52 49 47 46 44 44 43 43 43 43 44 44 44 44 44 44 43 42 41 40 38 38 37 36 36 35 34 33 32 31 30 31 31 31 32 34 35 36 36 35 34 32 30 29 28 27 25 23 21 20 19 18 18 17 16 17 19 18 17 16 16 15 14 18 29 35 28 20 18 17 30 65 96 101 99 106 108 100 97 97 96 99 107 107 101
58 56 54 52 50 49 47 46 45 44 44 43 43 42 41 41 40 39 39 38 37 36 36 35 35 35 34 33 33 32 32 32 33 33 35 36 37 38 36 34 32 31 30 28 26 25 23 21 20 20 20 19 18 18 21 25 27 26 23 20 20 20 17 16 25 33 32 27 20 16 34 74 102 101 96 103 105 99 98 100 98 99 104 105 100
58 56 55 53 51 50 49 47 45 44 43 41 41 40 39 39 39 38 38 38 38 37 37 37 36 36 35 34 34 34 34 35 36 37 37 37 37 36 35 34 32 30 29 28 26 24 22 21 21 20 19 19 18 19 22 28 33 34 31 27 26 26 23 20 23 28 33 34 27 18 31 71 102 103 96 100 105 101 98 99 101 100 99 99 100
62 58 55 53 51 50 49 48 47 46 44 43 42 42 41 40 40 39 39 39 39 38 38 39 39 38 38 37 37 39 40 40 41 40 38 37 35 34 33 32 31 30 30 28 26 24 23 22 22 21 20 21 23 24 27 34 41 42 38 35 33 32 28 23 20 22 34 47 44 27 23 47 83 101 101 99 102 105 102 98 99 101 100 97 97
69 65 62 60 57 55 55 54 51 48 47 45 45 44 43 43 44 43 43 45 47 49 50 51 50 48 48 48 48 47 46 43 41 38 35 34 33 31 30 29 28 28 27 25 23 22 22 20 21 22 22 23 27 31 35 44 52 50 43 37 34 31 28 23 17 18 33 53 60 48 29 26 48 82 102 103 100 103 105 101 97 98 101 98 95
69 67 67 67 68 67 67 68 67 67 68 68 68 68 68 69 69 67 65 66 69 69 69 67 64 62 60 58 54 49 45 41 38 36 33 32 31 30 30 29 26 24 24 23 22 22 22 22 23 25 27 31 39 44 45 47 50 48 42 36 32 28 26 24 20 20 29 42 53 55 44 27 25 48 82 102 104 100 101 102 99 97 99 100 99
65 64 64 66 68 69 69 71 77 85 93 97 97 96 97 97 95 92 88 85 81 77 74 72 70 68 64 58 50 44 40 37 36 35 33 31 30 29 28 26 24 22 21 22 22 23 25 26 28 31 36 45 56 62 57 49 43 40 36 33 30 27 27 30 32 32 32 34 38 46 51 45 33 30 50 81 101 102 98 98 100 100 99 99 100
70 72 75 77 77 75 73 73 78 88 97 100 97 93 92 92 90 86 83 79 74 68 64 60 57 54 51 47 42 39 38 35 34 33 31 29 27 26 24 22 22 22 23 25 26 27 28 29 31 34 38 43 49 55 55 48 40 35 33 31 29 30 33 37 42 44 41 37 38 42 48 51 46 35 33 50 77 97 102 101 99 100 101 101 100
Wind_Speed
41 40 37 34 32 30 29 28 28 27 25 24 23 22 22 21 21 20 20 20 20 19 19 18 18 16 16 15 15 14 14 14 14 15 16 16 18 19 21 23 24 26 27 28 29 29 29 30 31 31 31 32 33 34 34 35 37 37 38 38 39 39 40 40 41 43 45 46 47 48 48 49 49 48 46 45 44 43 42 41 39 37 34 31 28
43 41 38 35 33 32 31 31 30 28 27 25 24 24 23 23 22 22 22 22 21 21 20 20 19 17 17 16 16 16 16 16 16 16 17 19 20 22 24 25 27 29 30 31 32 32 32 33 33 34 34 34 35 36 37 38 39 40 41 42 42 43 44 45 46 47 48 49 51 51 51 51 51 51 49 46 44 43 42 41 39 37 34 30 27
45 42 39 36 34 34 34 33 31 29 28 26 25 24 23 22 22 22 22 22 22 22 22 21 20 19 19 18 18 17 17 18 18 18 20 22 24 25 27 28 30 32 33 33 34 34 34 35 35 36 36 37 38 39 40 41 42 43 44 46 47 48 49 50 51 51 51 51 52 53 53 53 52 51 49 47 44 42 41 40 38 35 33 30 27
46 44 40 38 37 36 35 33 31 30 28 26 25 25 24 23 23 23 23 22 23 23 23 23 22 21 21 21 20 20 19 20 20 21 22 24 27 28 30 31 33 34 35 35 35 36 36 36 37 38 39 40 41 42 43 45 46 47 49 50 51 52 53 53 54 54 54 53 52 52 52 52 51 49 46 44 43 41 39 38 36 33 31 29 27
48 45 42 41 40 39 37 35 33 30 29 27 27 26 26 25 25 24 23 23 23 24 24 25 24 24 23 23 23 23 22 22 24 25 26 27 29 31 33 34 35 36 37 37 37 37 37 38 39 40 42 43 44 45 47 49 51 52 53 54 55 55 56 55 54 54 53 53 51 50 48 47 47 46 43 41 40 39 38 36 33 30 28 27 27
50 47 45 44 43 41 39 37 34 32 30 29 29 29 28 28 27 26 25 24 24 25 25 26 26 27 26 26 26 26 26 26 27 29 29 30 32 33 35 37 38 38 39 38 38 38 39 40 41 43 44 45 46 48 50 53 54 56 56 56 56 56 55 54 53 51 50 49 49 47 45 44 42 42 40 38 37 37 36 34 30 26 24 25 27
50 49 48 46 45 43 41 39 37 35 33 32 32 31 30 29 29 29 28 27 26 26 27 28 28 29 29 29 29 29 29 30 31 32 32 33 34 35 37 39 40 41 41 40 40 41 42 43 44 45 46 48 50 51 53 55 56 57 57 56 55 54 52 51 50 49 47 46 45 44 43 41 38 38 38 36 35 34 32 30 27 24 23 24 26
51 50 49 47 46 44 42 40 39 38 36 35 34 33 31 30 30 31 31 30 30 29 29 30 30 31 31 32 32 32 32 33 33 33 34 35 36 37 39 41 42 43 42 42 43 44 45 46 47 49 50 52 53 54 55 55 55 54 53 52 51 50 49 48 47 46 46 44 42 40 39 38 35 34 35 35 32 29 27 24 23 23 24 24 25
51 51 50 49 47 44 42 42 41 40 39 38 36 34 32 31 31 32 32 33 32 32 32 31 32 32 33 34 34 34 34 35 35 35 36 37 38 40 41 42 43 44 44 45 46 47 48 50 51 53 54 54 55 55 54 53 51 49 47 47 47 47 47 46 45 44 44 43 41 38 36 34 32 31 33 32 28 24 22 22 22 23 24 24 24
52 52 51 50 48 45 43 43 43 42 41 39 37 35 34 33 34 34 34 34 34 34 34 33 33 34 35 36 36 36 36 36 37 37 38 39 40 42 43 43 44 45 46 47 48 49 51 53 54 55 55 55 54 52 50 48 46 44 43 42 43 44 45 45 44 43 42 42 40 37 34 31 29 30 30 28 22 19 20 22 23 25 26 26 26
52 52 52 51 49 47 45 44 44 43 42 40 38 37 36 36 37 37 36 35 35 35 35 35 35 35 36 37 37 37 37 38 38 39 39 40 42 44 45 45 45 47 48 49 51 52 53 54 55 55 54 53 50 47 45 43 41 41 40 41 41 43 45 45 44 44 43 42 40 37 33 30 28 28 27 22 18 17 19 22 24 26 27 29 30
51 51 51 51 50 47 45 44 44 43 42 41 39 38 38 38 39 38 37 36 36 36 36 36 36 36 37 37 38 38 38 39 39 39 40 41 43 45 47 47 48 49 50 52 53 54 54 54 53 52 50 48 46 44 42 40 38 39 40 41 42 43 44 44 44 44 43 43 41 37 32 30 28 26 23 19 17 18 20 23 25 27 28 30 32
50 51 51 50 49 47 45 45 45 44 43 42 40 39 40 40 40 38 37 37 36 36 36 37 38 38 38 38 39 39 39 39 40 40 41 42 43 46 48 49 51 52 53 53 54 53 52 50 48 46 45 44 43 42 41 40 38 39 40 41 43 43 43 43 43 44 44 42 40 35 31 28 27 25 22 20 19 21 23 26 28 28 29 30 32
50 50 50 50 49 48 47 46 46 46 44 43 41 41 41 41 40 38 37 37 37 37 37 37 39 39 39 39 40 40 40 40 41 42 42 43 44 46 49 51 53 54 54 53 52 49 47 44 43 42 42 41 41 41 41 40 39 39 40 40 41 42 42 41 41 42 42 42 39 34 29 26 25 24 22 22 23 25 27 29 28 27 29 31 33
50 50 50 50 50 50 49 48 48 47 45 44 42 42 41 40 39 38 38 38 38 38 38 38 39 40 41 41 41 41 41 42 42 43 43 44 46 48 50 52 53 53 52 49 46 43 41 41 41 41 40 40 40 41 42 41 42 42 41 40 40 41 41 40 40 40 40 40 38 33 28 25 25 25 24 25 27 29 31 32 31 30 32 34 36
50 50 50 50 50 50 49 48 47 46 45 43 42 42 41 41 40 39 39 39 39 39 39 40 40 41 42 43 42 42 42 43 44 45 45 47 49 50 51 51 50 48 45 42 40 39 39 40 40 40 40 40 41 42 43 43 44 44 44 43 42 42 42 40 38 39 39 38 35 32 27 23 23 26 28 29 31 32 35 36 35 36 38 40 40
48 49 49 49 48 48 47 46 46 45 44 43 43 42 42 41 40 40 40 40 40 40 41 41 41 42 42 43 44 44 44 45 46 47 48 49 50 50 48 46 43 41 38 36 37 38 38 39 39 40 41 41 42 44 44 44 46 46 46 45 44 45 44 41 39 40 39 37 33 28 24 22 23 26 30 33 34 35 37 38 39 41 44 45 43
45 47 48 48 47 47 47 46 45 45 45 44 43 43 42 42 41 41 41 41 41 41 41 42 42 43 43 44 45 46 47 48 49 50 50 50 49 46 43 40 37 35 33 34 36 38 39 39 40 40 41 42 43 45 45 45 46 47 48 47 46 46 45 42 42 41 39 37 33 27 23 24 26 30 36 38 39 38 40 40 40 41 43 44 43
42 43 45 46 47 47 47 46 46 45 45 45 44 43 43 42 42 41 42 42 42 42 42 43 43 44 45 46 47 48 49 50 50 50 48 45 42 39 37 36 35 34 33 35 36 38 39 40 40 41 41 42 43 45 46 47 47 48 49 49 49 47 44 43 43 41 39 38 35 29 26 28 32 38 41 41 42 42 42 41 39 38 40 42 43
43 43 43 44 45 46 46 46 46 45 45 45 44 44 43 43 43 42 42 42 43 43 44 44 45 46 47 48 49 49 49 48 46 44 41 38 36 34 34 35 35 35 35 36 37 38 39 40 41 42 42 42 43 45 47 49 50 50 51 51 50 47 44 42 41 39 37 37 36 33 33 36 40 42 38 35 36 37 37 37 37 37 38 40 41
47 46 45 45 45 45 45 45 44 44 44 44 44 44 44 44 43 43 43 43 44 45 46 46 47 47 48 48 48 47 45 43 40 37 35 33 33 33 34 35 35 35 36 38 39 40 40 41 42 43 43 43 45 46 48 50 52 53 52 51 49 46 42 40 41 41 39 38 37 35 37 40 42 39 33 32 34 33 32 32 33 35 38 40 42
51 49 48 48 47 46 45 45 45 44 44 44 45 45 44 45 45 45 45 46 46 47 47 48 48 48 48 46 44 42 39 37 35 34 33 32 33 33 34 35 35 35 37 39 40 41 42 43 43 44 44 45 46 47 48 50 52 54 53 51 47 42 42 47 52 53 52 48 42 37 36 39 38 35 35 37 37 34 32 33 34 36 40 43 45
52 51 51 50 49 48 47 47 47 46 46 46 46 46 46 46 46 46 47 47 48 48 47 47 47 45 44 42 39 37 35 34 33 33 33 33 34 35 36 36 36 37 38 41 43 43 43 44 45 46 47 47 48 49 50 51 52 52 51 48 43 40 47 54 57 57 54 50 43 36 34 35 34 34 39 42 38 34 34 36 40 44 47 46 48
51 51 50 50 50 49 49 49 49 48 48 47 47 46 46 46 47 47 47 47 47 46 45 44 42 41 39 37 36 35 34 33 33 34 34 36 37 38 39 39 39 39 40 43 45 45 45 46 47 49 50 51 51 52 53 54 53 51 49 45 39 41 50 52 49 47 44 40 36 34 32 32 33 34 38 38 35 33 36 40 46 50 50 47 48
53 52 52 51 51 51 51 50 50 50 49 48 48 47 46 46 46 47 47 46 45 43 42 40 38 37 36 35 35 34 33 34 34 35 37 38 40 40 41 42 43 43 43 45 46 47 47 48 49 50 52 53 53 53 55 56 55 52 49 44 40 42 48 46 40 39 38 35 34 31 27 27 28 31 36 40 43 45 48 52 55 57 53 50 51
53 54 53 53 52 52 52 51 51 50 49 48 47 47 46 46 46 46 45 43 42 40 39 37 37 36 35 35 35 35 35 35 35 36 38 40 42 43 43 44 45 46 46 47 48 48 49 49 50 51 53 54 55 55 56 57 57 54 52 48 44 43 43 41 38 36 34 34 33 26 22 25 33 41 50 57 61 63 65 66 66 65 60 57 59
50 51 52 52 52 51 50 50 49 49 48 46 46 46 46 45 45 43 42 40 39 38 37 36 36 35 36 36 37 37 37 36 37 38 39 41 43 44 45 46 47 48 48 49 49 50 50 51 51 52 53 55 56 57 57 58 58 56 54 53 50 47 43 40 38 36 33 32 29 23 24 33 42 49 57 62 63 63 66 69 69 66 62 60 60
45 47 48 49 49 49 48 46 46 45 44 44 44 44 44 43 42 41 39 39 38 38 37 37 37 37 37 38 38 39 39 39 39 39 40 42 44 46 47 48 49 50 50 50 51 51 52 52 53 54 54 55 56 57 58 58 58 57 56 55 54 51 45 40 38 37 34 30 26 25 30 40 46 49 53 57 59 59 62 64 64 64 65 63 59
43 44 45 46 46 46 45 44 43 42 42 43 43 43 43 42 40 40 39 39 39 39 39 39 39 39 40 40 41 41 41 41 42 42 42 44 45 47 49 50 51 52 52 52 52 53 53 54 54 55 56 56 56 57 58 58 57 57 56 56 57 55 49 44 40 39 37 31 26 26 31 40 49 54 56 60 64 65 63 60 59 62 66 66 62
43 43 44 44 44 44 44 43 42 42 42 42 42 42 41 40 39 39 40 40 40 41 41 42 42 42 43 43 44 44 44 44 44 45 45 47 48 49 51 53 54 54 55 55 55 55 55 56 56 57 58 58 57 58 58 57 57 57 57 57 58 57 53 48 45 42 39 34 29 29 35 45 54 57 58 61 64 63 61 61 61 63 65 64 63
44 44 44 44 44 44 44 43 43 43 43 43 43 42 42 41 41 41 42 43 43 44 44 44 45 45 46 46 46 46 47 47 47 48 49 50 51 52 54 55 56 57 58 58 58 58 58 58 59 60 60 59 59 59 58 58 58 59 58 58 59 59 57 54 50 46 43 38 35 37 46 56 60 57 56 57 58 56 57 61 65 66 65 63 63
45 46 46 45 45 45 45 44 44 45 45 45 45 44 44 44 43 44 44 45 45 46 46 47 47 48 48 49 49 49 50 51 51 52 53 53 55 56 57 58 59 59 60 61 60 61 61 61 61 62 62 62 61 60 60 59 59 60 60 58 57 58 59 57 55 51 48 44 42 45 51 57 59 57 56 55 54 54 56 59 62 64 63 62 62
47 48 48 48 47 48 47 47 48 48 48 47 47 47 47 46 46 46 47 47 48 49 50 50 51 51 51 52 52 52 53 54 54 55 56 57 58 59 60 61 62 62 63 63 63 63 63 63 64 64 64 64 63 63 62 61 60 60 60 59 58 58 58 59 58 55 52 48 45 47 52 54 54 53 53 53 52 49 47 49 53 55 55 55 57
51 51 51 51 51 51 51 51 51 51 51 50 50 50 49 49 49 49 50 50 51 52 54 54 54 54 54 55 55 56 56 57 58 59 59 60 61 62 63 64 64 65 66 66 66 66 66 66 66 66 66 65 65 64 64 63 62 60 60 60 60 58 57 59 59 56 53 50 47 47 51 54 54 53 51 50 48 42 39 45 49 47 45 47 51
55 55 55 55 56 55 55 55 54 54 54 54 53 53 52 52 52 52 53 54 55 56 57 57 57 57 57 58 58 59 59 60 61 62 62 63 64 65 66 67 67 68 69 68 68 68 68 68 68 69 68 67 66 66 65 64 62 61 60 60 60 58 57 60 60 56 51 49 48 47 50 53 56 55 51 47 45 43 43 48 49 44 42 47 51
59 59 59 59 59 58 58 58 58 58 58 57 57 56 56 56 56 56 57 57 58 59 60 60 60 60 61 61 62 62 63 63 64 64 65 66 67 68 69 70 70 71 72 71 71 71 71 71 71 71 70 69 68 67 66 65 63 63 61 58 57 57 57 60 61 58 52 49 47 47 49 51 52 52 49 45 42 41 41 43 44 44 45 46 47
63 63 62 61 61 61 61 61 61 61 61 61 61 61 61 61 61 61 61 61 62 63 63 63 63 64 64 65 65 65 66 66 67 67 68 69 70 71 72 73 74 74 75 74 74 74 73 73 73 72 71 70 69 67 67 66 64 62 59 56 56 56 56 58 60 59 54 48 45 45 47 49 47 45 44 40 35 32 34 37 41 44 47 46 47
67 66 65 65 65 65 65 65 65 65 65 65 66 66 66 66 65 65 65 65 66 66 67 67 67 68 68 68 68 69 69 69 69 70 70 71 72 73 74 75 76 76 77 77 77 77 76 76 76 75 73 72 70 68 67 65 62 60 56 53 54 55 55 56 59 60 55 49 44 42 44 46 45 43 42 40 34 31 33 36 37 38 42 45 48
70 69 69 69 69 69 69 69 69 69 69 70 70 70 70 70 69 69 69 68 69 69 69 70 70 71 71 71 71 72 72 72 72 73 73 74 75 76 77 78 78 79 80 80 80 79 78 78 77 76 75 73 71 69 66 63 60 58 56 52 51 51 51 53 57 58 55 50 44 40 39 40 41 42 43 42 38 35 34 34 35 38 41 44 48
72 71 71 71 72 72 72 72 72 72 72 73 73 73 74 73 72 72 71 71 71 72 72 73 74 74 74 74 74 75 75 75 75 76 77 77 78 79 80 80 81 81 82 82 82 81 80 79 79 78 76 75 73 70 67 63 60 58 56 52 48 47 47 50 54 54 51 48 45 41 39 38 37 40 42 42 41 42 39 35 35 39 38 38 45
75 74 74 74 74 75 75 75 75 74 75 75 76 76 76 75 75 75 74 74 74 75 75 76 77 78 78 78 77 77 77 78 78 79 80 80 81 82 82 83 83 83 84 84 85 84 83 82 81 80 79 77 75 72 68 65 61 58 55 51 47 45 46 48 51 50 47 45 43 41 41 40 37 38 41 42 41 43 40 33 32 38 37 36 43
78 78 78 78 78 78 77 77 77 77 77 77 78 78 78 77 77 78 78 78 78 78 78 78 79 80 81 81 80 80 80 80 81 81 82 83 84 85 85 85 85 85 86 87 87 87 86 84 83 82 81 79 77 74 71 67 63 59 57 55 52 49 48 49 51 50 47 44 41 41 42 42 38 37 40 43 43 42 39 33 33 39 45 46 52
82 81 81 81 81 81 80 80 80 80 80 80 80 80 80 80 80 81 81 81 81 81 81 81 81 82 83 83 83 83 83 83 83 84 84 85 86 87 87 87 87 88 88 89 88 88 88 87 85 84 83 81 79 77 74 70 66 63 61 59 57 55 53 51 51 51 48 44 41 42 43 42 40 37 37 40 41 38 34 33 35 42 47 50 54
84 84 84 84 84 83 83 83 83 83 83 83 83 83 83 83 84 84 84 84 84 84 84 84 84 85 85 85 86 86 86 86 86 87 87 87 88 88 88 89 90 91 91 91 90 90 90 89 88 86 85 83 81 78 75 72 69 67 65 63 62 61 58 53 50 49 49 45 41 41 43 43 40 38 37 38 37 34 33 36 42 49 53 55 57
86 86 85 85 85 85 86 86 86 86 86 86 86 87 86 86 86 86 87 87 87 87 88 88 88 88 88 88 88 89 88 88 89 89 89 89 89 90 91 91 92 92 93 93 92 92 91 90 89 87 86 84 81 78 75 73 71 71 69 67 66 67 64 56 50 49 50 47 41 38 41 43 43 41 41 41 38 37 38 43 48 53 58 63 67
88 88 88 87 87 88 88 88 89 89 89 89 89 89 89 89 89 89 89 89 90 90 91 91 92 92 92 92 92 92 91 91 90 90 90 90 91 92 93 94 94 95 95 95 94 93 93 91 90 89 87 85 81 78 75 73 72 72 72 71 70 72 70 64 56 53 52 49 45 39 38 43 47 47 47 47 46 44 44 47 52 57 61 65 71
90 90 89 90 90 90 90 90 91 91 91 91 91 92 92 92 92 93 93 93 93 94 94 95 95 95 95 95 94 94 92 91 91 91 92 93 94 95 96 96 96 96 96 96 95 94 94 93 91 90 87 84 81 78 76 74 72 72 73 73 73 74 75 73 66 57 51 50 49 45 39 41 48 52 53 53 53 53 52 51 53 58 62 65 69
90 91 91 91 92 92 91 92 92 92 93 94 94 95 95 96 96 96 96 96 95 95 95 95 95 95 95 94 94 92 92 92 93 94 96 97 98 98 98 98 98 97 97 97 96 96 95 94 92 89 86 83 81 78 76 74 74 74 75 75 75 75 76 76 73 63 55 52 53 51 45 40 44 51 57 57 56 57 58 57 57 59 63 67 70
93 94 94 94 93 93 93 92 93 93 94 95 95 95 96 96 96 95 95 94 93 92 92 92 93 93 93 92 92 93 95 97 98 100 101 101 101 100 100 100 99 98 98 97 97 96 96 94 91 88 85 82 80 78 77 76 76 77 78 78 78 77 76 75 74 69 64 60 57 54 50 45 43 46 55 61 61 60 61 63 63 64 66 69 72
98 97 98 98 98 98 97 95 95 94 93 92 91 91 92 92 91 91 91 90 90 90 91 92 93 94 95 96 98 100 102 103 103 103 104 104 103 102 101 101 101 99 98 97 96 95 94 92 90 87 84 81 79 79 78 78 78 79 80 80 80 80 79 78 76 75 73 69 65 60 56 52 49 48 52 59 65 67 68 69 70 71 71 71 73
97 97 97 98 99 99 98 97 97 96 94 93 93 93 93 93 94 94 95 95 96 97 98 100 101 102 103 105 106 106 106 106 105 105 105 105 104 103 103 102 101 99 98 97 96 94 92 90 88 86 83 82 80 80 81 81 81 81 81 81 82 82 81 81 80 79 77 75 72 70 65 58 54 52 53 57 63 69 72 74 75 76 76 76 76
Wind_Direction
213 211 210 207 204 204 205 208 211 213 216 218 221 225 229 233 236 238 240 242 244 248 252 256 258 258 259 262 264 267 270 275 282 289 295 301 305 308 312 315 316 318 318 319 319 319 319 318 318 318 319 319 319 319 319 318 318 319 319 319 319 318 317 317 317 317 317 316 316 315 315 314 313 313 313 314 314 314 312 311 311 311 311 310 305
217 215 212 209 206 206 208 211 214 217 220 223 226 230 234 236 239 241 243 246 249 251 255 258 260 259 259 260 263 267 271 274 280 289 295 300 303 306 309 312 315 317 318 319 319 319 319 318 317 318 318 318 318 317 317 317 317 317 317 317 317 317 317 316 316 315 315 314 314 313 312 312 311 311 312 313 312 311 310 309 309 309 309 307 302
220 217 214 211 210 210 212 214 217 220 224 226 229 233 235 238 242 245 248 251 253 256 258 261 260 260 261 263 266 268 272 277 282 288 293 298 301 305 308 311 314 316 317 318 318 318 318 317 317 317 316 316 316 316 316 316 316 316 316 316 316 316 316 315 315 314 313 312 312 312 311 311 311 312 313 313 312 310 308 307 307 307 306 303 301
221 218 216 214 214 214 215 218 220 223 227 229 231 233 235 239 243 247 251 254 256 258 260 262 261 260 261 265 269 272 275 281 285 288 291 296 300 305 309 312 314 315 315 316 315 316 316 316 315 315 315 315 315 315 315 315 315 316 315 315 315 315 314 314 313 312 312 311 311 311 311 311 312 312 313 313 311 310 308 306 306 306 304 301 302
222 219 217 216 217 218 218 220 222 225 228 229 230 232 236 240 243 247 251 255 259 261 262 263 262 261 261 264 269 274 278 281 284 287 291 296 301 306 309 311 312 313 313 314 313 313 313 313 313 313 313 314 314 314 315 315 315 315 315 315 314 314 313 313 312 312 312 312 312 312 312 312 313 313 314 313 310 309 307 307 307 305 302 301 305
222 220 218 218 219 220 220 221 223 226 228 228 230 234 239 242 244 249 254 259 263 265 265 265 263 262 263 265 269 274 278 280 283 287 292 297 302 305 308 309 310 311 311 311 311 311 311 311 311 311 312 313 313 314 314 314 314 314 314 314 313 313 312 312 312 312 312 313 313 314 314 314 313 313 313 312 309 307 307 308 309 307 304 306 310
221 221 220 220 221 221 222 223 224 226 227 227 231 236 240 243 247 252 257 262 265 266 266 266 264 264 265 267 269 273 276 278 282 287 293 298 301 303 305 307 308 309 310 309 309 309 309 309 310 310 311 312 312 312 313 313 313 313 313 313 313 313 313 313 314 314 315 315 315 315 314 314 314 312 311 310 308 307 308 310 310 309 310 312 312
221 221 222 222 223 223 223 224 225 226 227 228 232 237 241 245 249 254 258 262 265 265 265 266 265 265 266 268 269 271 273 277 282 288 293 296 298 301 303 305 306 307 308 308 308 308 309 309 309 310 310 310 311 311 311 312 312 312 313 313 314 314 314 315 316 317 317 317 317 316 315 314 313 310 308 308 308 310 311 312 311 310 311 312 310
221 222 223 224 225 225 224 224 225 226 228 230 233 238 243 247 251 254 258 261 264 264 264 264 265 265 266 267 269 271 274 279 284 288 291 294 297 300 302 303 304 305 306 307 307 308 308 308 308 309 309 309 310 310 311 311 312 313 314 315 315 315 316 318 319 320 320 320 319 317 315 313 312 308 305 306 310 314 315 313 312 312 311 311 310
220 223 224 226 226 226 225 225 225 226 229 231 235 240 245 250 253 255 257 261 263 264 263 263 264 266 267 268 270 273 277 281 284 288 291 294 297 298 299 301 302 304 304 305 306 306 307 307 307 307 308 308 309 310 311 313 314 315 316 315 316 317 318 319 322 324 324 323 321 319 315 312 309 305 305 306 311 318 320 317 316 316 315 315 314
219 223 225 226 226 226 226 226 227 228 231 234 238 242 248 252 254 256 258 261 263 263 263 264 267 269 270 271 273 276 279 281 285 288 292 295 296 297 298 300 301 302 303 303 304 305 305 306 306 306 307 308 309 311 313 315 317 318 317 318 318 318 319 321 324 326 325 324 323 320 315 312 307 305 304 304 308 319 325 323 320 318 316 315 312
218 221 225 226 226 226 227 227 229 231 233 236 240 245 249 252 254 257 260 262 263 264 265 267 269 271 272 274 275 277 279 282 286 289 291 293 295 296 298 300 301 301 301 302 303 304 305 305 306 307 309 310 312 315 316 318 320 320 319 319 319 320 321 323 326 326 325 324 324 321 317 312 307 304 303 300 302 312 321 323 321 316 312 310 308
218 221 224 225 226 227 228 229 231 233 236 239 243 246 249 252 255 258 261 263 264 265 267 269 271 272 273 275 277 279 281 283 286 288 290 292 294 296 297 298 299 299 300 301 303 304 304 305 307 309 311 314 316 318 319 321 322 320 319 319 319 321 323 325 327 327 325 325 324 322 318 312 305 301 301 298 298 303 311 318 319 313 307 305 306
220 222 224 225 226 228 230 232 234 236 239 241 244 246 249 252 256 259 262 263 265 266 267 269 271 273 274 276 277 280 282 284 285 287 290 292 293 295 296 297 297 298 300 302 303 304 305 307 309 312 314 316 318 319 320 321 321 319 318 318 320 322 323 325 329 329 327 327 325 321 317 310 301 298 298 298 296 300 307 316 318 315 310 308 307
224 225 226 227 228 230 232 234 237 240 242 243 245 247 249 252 255 259 261 263 264 266 267 269 271 274 275 277 278 280 282 284 286 288 290 291 292 293 294 295 296 298 300 302 304 306 308 310 312 314 316 317 318 319 320 321 321 320 319 319 320 321 321 324 329 330 328 327 325 321 316 309 300 297 298 297 297 300 306 311 313 316 317 316 312
228 228 229 230 231 233 235 237 240 242 244 245 246 247 250 253 255 257 260 262 264 266 268 270 271 273 276 278 280 281 283 284 286 288 289 290 291 292 293 294 295 298 301 304 306 307 309 312 313 315 316 318 319 319 320 321 321 321 320 320 321 320 320 324 328 328 327 327 324 320 317 313 305 300 298 296 296 300 304 305 306 310 316 318 315
230 231 232 233 234 236 237 238 240 242 244 245 246 249 251 253 255 258 260 262 265 267 269 271 272 273 275 278 280 282 283 284 286 287 288 289 290 291 292 293 294 297 301 305 307 309 310 312 313 315 316 317 318 318 319 319 319 319 319 320 320 319 319 323 326 324 325 325 321 316 316 315 309 302 298 297 298 300 301 301 302 305 310 314 314
233 232 233 234 235 237 238 239 240 242 244 246 248 250 252 254 256 259 260 263 265 267 269 270 272 274 276 278 280 282 283 284 286 287 288 290 291 292 293 294 295 299 304 307 308 310 311 312 312 313 315 316 316 316 316 317 317 317 318 318 318 318 319 323 323 323 324 322 317 312 310 307 305 303 300 299 299 299 299 303 308 311 312 314 315
237 235 235 236 236 238 239 240 242 243 245 248 249 251 253 255 257 259 260 262 265 266 269 270 272 274 276 277 279 281 283 284 286 288 290 291 293 295 297 299 301 304 307 308 308 307 308 309 310 311 312 314 314 314 314 316 316 317 317 317 318 317 319 321 321 321 322 319 314 309 301 298 305 309 304 299 298 298 300 307 314 318 317 316 316
239 239 238 238 238 239 240 241 243 245 247 249 251 253 255 256 258 259 261 263 265 267 268 270 271 273 275 277 279 281 283 285 286 287 289 292 295 298 300 301 302 305 306 305 304 304 305 307 308 309 311 312 312 313 314 315 316 317 317 317 318 318 319 320 319 319 318 316 312 305 294 294 307 314 310 306 306 305 304 309 314 317 318 318 316
239 238 238 239 239 239 241 242 243 246 248 250 253 254 256 258 259 261 262 263 265 266 268 269 271 273 275 277 279 281 282 283 284 286 289 292 294 296 296 297 299 301 302 302 303 304 305 307 308 309 311 312 312 313 314 316 316 316 317 319 319 319 319 319 318 315 314 314 313 304 292 294 304 310 311 313 316 315 312 311 312 316 319 320 318
238 238 238 239 240 240 241 242 244 246 248 250 253 255 257 258 259 260 262 263 264 266 268 270 272 274 275 276 277 278 279 280 283 286 288 290 291 291 291 293 296 299 301 302 303 305 307 308 310 311 312 311 311 312 313 315 315 315 318 321 321 319 320 320 317 312 310 311 310 303 297 297 301 307 313 313 311 312 315 313 314 318 320 321 321
239 239 239 240 241 242 243 244 245 246 248 250 252 254 256 258 259 260 262 263 265 266 268 270 271 272 273 273 273 274 276 279 282 285 287 289 290 291 293 295 299 301 303 304 306 307 310 311 313 313 313 312 312 312 312 313 313 315 318 321 322 321 319 316 310 306 306 307 304 300 299 297 295 305 317 317 310 309 313 315 317 318 317 317 320
239 239 241 242 243 244 245 245 246 247 249 250 252 254 256 258 259 260 261 262 263 264 265 266 267 267 267 269 270 273 276 280 283 286 289 291 293 294 297 300 302 305 306 307 308 310 312 314 314 314 314 313 313 313 313 312 313 315 317 320 321 315 308 304 302 302 304 302 297 297 298 294 294 305 318 322 319 316 313 312 314 316 313 311 316
240 241 242 243 244 245 245 246 247 248 249 251 252 254 254 255 256 256 257 258 259 260 260 260 261 261 263 266 269 273 277 280 285 289 292 294 296 298 301 303 305 307 308 309 310 312 314 314 314 314 313 313 314 314 313 312 313 314 315 316 317 310 302 300 303 307 305 299 295 295 296 296 302 311 315 314 311 307 304 303 304 308 309 307 309
241 241 242 243 243 245 246 247 247 249 250 251 251 251 251 251 252 253 253 254 254 254 255 256 258 260 263 266 270 273 277 281 286 290 292 295 298 301 303 305 307 309 310 310 311 313 313 313 313 313 313 313 314 314 313 312 313 314 314 312 312 311 306 301 301 301 297 290 286 286 291 301 309 308 303 300 299 299 299 300 301 302 303 301 302
240 241 242 242 243 244 245 247 248 248 248 248 247 246 246 247 248 249 250 251 252 253 254 256 259 262 265 269 272 276 279 283 286 288 291 295 299 302 304 306 307 309 309 310 311 311 311 311 312 312 313 313 313 313 313 312 312 313 312 310 309 310 308 304 299 295 287 277 272 275 286 295 300 298 293 291 294 296 297 297 298 299 299 299 301
239 241 241 241 242 242 243 244 245 244 243 241 241 242 243 244 245 246 247 249 252 255 257 260 262 265 268 271 274 277 280 283 285 287 291 295 298 301 303 304 306 307 308 309 309 309 310 311 312 312 313 313 313 313 312 311 311 311 310 308 307 308 308 306 302 297 288 273 264 268 279 284 288 289 287 287 288 289 289 288 288 290 293 296 300
238 240 240 240 240 239 238 237 238 239 239 239 240 241 242 243 244 246 249 251 255 257 260 262 265 267 270 272 274 277 280 283 285 288 292 295 297 299 301 302 304 305 306 307 308 309 309 310 311 312 312 312 312 312 311 310 310 310 308 306 306 306 306 306 305 301 293 278 261 260 272 280 282 280 277 275 276 277 280 282 282 283 287 291 294
237 238 239 239 238 236 234 232 233 236 239 241 242 244 245 246 248 251 253 255 257 259 262 264 266 269 271 273 275 277 280 283 286 289 292 293 295 297 299 301 303 304 305 306 308 308 309 310 310 311 311 312 312 312 311 311 311 310 308 306 306 305 304 304 305 302 294 280 262 256 265 272 274 272 268 267 269 273 278 282 284 285 286 287 288
237 238 238 238 238 236 234 233 234 237 240 242 244 246 248 249 251 253 255 257 259 261 263 266 268 270 272 274 277 279 281 284 286 288 290 292 293 295 297 299 301 303 304 306 307 308 309 310 310 310 311 312 312 312 312 312 311 310 308 306 305 304 303 304 304 302 296 282 262 254 259 264 266 267 269 271 273 275 276 279 281 283 283 283 284
235 237 238 239 239 239 238 237 238 239 241 244 246 247 249 251 252 255 257 260 262 264 266 268 270 272 274 276 278 280 282 284 286 287 289 291 292 294 296 298 299 301 303 305 306 308 309 310 310 311 311 312 313 312 312 312 312 309 307 305 303 302 303 303 302 303 300 286 266 254 254 257 260 265 270 273 272 269 270 275 279 281 282 282 282
237 237 238 239 240 241 242 241 242 243 244 246 248 250 252 254 256 259 261 263 265 267 269 270 271 273 275 277 279 281 282 284 285 286 288 290 292 293 295 296 298 300 302 304 305 307 308 309 310 311 311 312 313 313 312 312 311 309 306 304 302 302 302 302 302 303 301 292 276 261 255 254 255 259 264 267 266 266 271 277 281 283 284 282 282
241 240 240 241 242 243 244 244 245 247 248 249 251 253 255 258 260 262 265 266 268 269 270 271 273 274 276 278 279 281 282 283 284 286 288 289 291 293 294 296 298 300 301 303 304 305 307 308 309 310 311 312 312 312 311 310 309 307 304 302 302 301 301 300 301 302 301 295 282 267 257 253 253 254 256 259 261 264 273 279 282 286 285 280 281
243 243 243 243 244 245 246 247 248 250 251 253 254 256 258 260 262 264 266 267 268 269 270 272 273 275 277 278 280 281 282 283 285 286 288 289 291 293 295 296 298 299 301 302 304 305 307 308 309 310 311 311 311 311 311 310 308 305 303 301 300 300 301 301 302 303 303 297 285 271 260 255 254 254 255 258 262 266 271 274 278 284 283 276 275
243 245 245 246 247 248 249 250 251 252 253 254 256 258 259 261 262 264 265 266 268 269 271 272 274 276 277 278 280 281 282 284 285 287 288 290 292 293 295 296 297 299 300 302 303 305 307 308 309 309 310 310 310 310 310 309 307 304 302 301 300 301 303 304 304 305 304 298 287 273 262 257 256 256 255 259 266 270 269 266 269 276 280 278 275
245 246 247 248 249 250 251 252 253 253 254 256 257 258 260 261 262 263 264 266 268 269 271 273 274 276 277 278 280 281 283 284 286 287 288 290 291 293 294 296 297 298 300 302 303 305 306 308 308 308 309 309 309 310 309 308 306 303 302 301 302 303 304 304 304 305 305 300 288 275 265 259 254 252 254 260 266 266 261 258 262 270 278 281 280
245 246 248 249 250 251 252 253 253 254 255 257 258 259 260 261 263 264 265 267 269 270 272 273 275 276 277 279 280 282 283 284 285 287 288 289 290 292 293 295 297 299 300 301 303 305 306 307 307 307 308 308 308 309 309 307 304 302 302 302 303 304 305 305 304 304 304 301 290 276 268 263 255 248 249 253 256 260 262 259 259 266 275 279 279
244 246 247 248 249 250 252 253 254 255 256 258 259 260 262 263 264 265 266 268 269 271 273 274 276 277 278 279 280 281 282 284 285 286 287 289 290 292 294 295 297 299 300 301 303 304 305 306 306 306 307 307 308 308 307 305 302 302 302 303 303 303 304 306 305 304 304 302 291 274 264 262 259 255 253 251 249 254 262 262 262 270 278 279 278
246 247 248 249 250 251 252 253 255 256 257 259 260 261 263 264 265 266 267 269 271 272 274 275 276 277 277 278 280 281 282 284 285 286 288 290 291 293 294 296 297 299 299 301 302 303 304 305 305 305 306 306 307 307 305 303 301 302 302 302 301 301 303 306 307 305 302 298 290 275 260 255 255 257 259 257 252 252 256 262 268 273 273 272 272
248 249 250 251 252 253 254 255 256 257 258 259 261 262 264 265 266 268 269 270 271 273 274 275 276 276 277 278 279 281 282 284 285 287 289 290 292 293 295 296 297 298 299 300 301 302 303 304 304 304 305 305 306 306 304 303 302 302 304 304 303 303 306 308 309 307 301 294 286 275 262 254 252 254 255 255 253 251 249 251 263 270 268 262 261
249 249 251 252 253 254 255 256 257 258 259 261 262 263 265 266 268 269 270 270 271 272 273 275 276 277 278 279 281 282 283 285 286 288 290 291 292 294 295 296 296 297 298 299 300 301 302 303 303 304 304 305 305 305 304 303 304 305 308 309 309 309 312 314 314 314 309 298 284 272 262 256 254 254 255 253 251 250 246 243 254 268 272 268 263
250 251 251 252 254 255 256 257 258 260 261 262 263 265 266 267 268 269 270 271 272 273 274 275 276 278 279 280 282 283 285 286 287 289 290 291 292 293 294 295 296 297 298 299 300 300 301 302 302 303 303 304 305 305 304 305 307 308 311 312 312 312 316 319 318 318 316 306 287 270 261 256 254 255 255 253 250 247 243 244 253 262 265 265 264
251 252 253 254 255 256 257 258 260 261 262 263 264 265 266 267 268 270 271 272 273 274 275 276 277 278 279 280 282 283 285 286 287 288 289 290 291 292 293 294 295 296 297 298 299 299 300 300 301 302 303 303 304 304 305 306 308 309 310 311 312 313 315 317 317 316 316 312 296 275 261 255 253 250 247 246 244 237 232 240 253 260 261 260 261
252 253 254 255 256 257 259 260 261 262 263 264 265 266 267 268 269 270 271 272 273 274 275 276 277 278 279 280 282 283 284 285 286 287 288 289 290 291 292 293 294 295 296 297 297 298 299 299 300 301 302 302 302 303 304 305 306 307 308 310 310 311 313 315 315 312 310 310 304 285 265 254 249 245 239 236 234 230 228 233 242 249 253 256 259
252 253 254 256 257 258 259 260 261 262 263 264 265 266 267 268 269 270 271 273 274 275 276 277 277 278 279 280 281 282 283 284 285 286 287 288 290 291 292 293 294 295 295 296 297 297 298 299 299 300 300 301 301 302 303 304 304 304 306 307 308 309 309 310 309 307 308 310 310 299 275 256 247 242 238 234 230 227 228 233 238 240 244 250 255
253 253 254 255 257 258 259 260 261 262 263 265 266 267 268 269 270 271 271 272 273 274 275 276 277 278 279 279 280 281 282 284 285 286 287 288 289 290 291 292 293 294 294 295 295 296 297 297 298 299 299 300 301 302 302 302 302 302 303 304 304 305 306 306 305 306 309 311 311 306 290 266 250 244 242 239 235 232 232 235 239 241 244 247 251
252 253 254 255 256 257 259 260 261 262 263 264 265 266 267 268 269 269 270 271 272 273 274 275 276 277 278 278 279 281 282 284 286 287 288 289 289 290 291 291 292 292 293 294 294 295 296 296 297 298 298 299 300 300 300 300 299 299 300 301 301 301 303 305 306 308 310 310 309 309 303 285 263 250 245 243 242 241 240 240 242 243 245 246 248
251 253 254 255 256 257 258 259 260 261 262 263 264 265 266 266 267 268 269 270 271 273 274 275 276 276 277 278 280 282 283 285 286 287 288 288 289 289 290 291 291 292 293 293 294 295 295 296 297 298 298 298 298 298 297 297 297 297 297 298 299 299 300 302 304 306 307 307 307 308 306 298 284 265 252 247 247 246 244 243 243 244 244 246 248
252 254 255 256 257 258 259 259 260 262 262 263 263 265 265 266 267 268 269 270 272 273 274 276 277 277 278 279 281 283 284 285 286 287 287 288 289 289 289 290 291 292 292 293 293 294 295 295 296 297 297 296 295 294 294 294 295 295 296 296 297 298 300 301 303 305 306 306 306 306 305 301 296 284 266 253 248 247 246 245 245 245 246 248 251
253 254 255 256 257 258 259 259 260 261 262 262 263 265 266 267 268 269 271 271 272 274 275 276 277 278 278 280 281 282 283 284 285 286 287 287 288 289 289 290 291 291 292 293 293 294 294 295 295 295 295 294 293 292 292 292 293 294 295 295 296 297 298 299 300 302 303 303 303 303 302 300 297 292 281 266 255 249 247 248 249 250 250 252 254